Location: *
(46.0770°N, 1.6444°E)
Time: 01:09:42
(UTC+00:00)

Cosmos 1821 Rocket - Pass Details

Date: 16 September 2019
Orbit: 944 x 1005 km, 82.9° (Epoch: 19 October)

Event Time Altitude Azimuth Distance (km) Brightness Sun altitude
Rises 21:36:08 0° 349° (NNW) 3,670 7.8 -33.4°
Reaches altitude 10° 21:38:41 10° 347° (NNW) 2,710 7.0 -33.6°
Enters shadow 21:43:45 57° 315° (NW) 1,123 4.4 -34.2°
